Vorticity
12 12 10 9 8 7 6 6 7 7 7 8 8 8 8 8 9 10 11 11 11 11 12 12 12 13 13 12 12 10 9 8 7 7 6 7 7 7 7 7 6 6 5 4 4 4 5 6 7 8 10 10 11 11 11 11 11 10 10 11 11 11 11 12 12 12 12 12 12 12 12 12 12 11 11 11 10 10 9 8 8 8 8 7 8 8
11 10 10 9 8 8 8 8 8 8 8 8 8 8 8 8 9 10 11 12 12 12 12 12 12 13 13 12 11 10 9 7 7 6 6 6 7 7 6 6 6 5 4 4 4 4 5 7 8 10 10 10 11 10 10 11 11 11 11 11 11 12 12 11 11 11 11 11 11 11 11 11 11 11 11 11 11 11 11 11 11 11 11 10 11 11
10 10 10 10 9 9 10 10 10 10 10 9 9 8 8 8 9 10 11 12 12 12 12 12 12 12 12 12 11 10 8 7 6 6 6 6 6 6 6 6 5 5 4 4 4 5 6 8 9 10 10 10 10 10 10 10 11 11 12 12 12 12 12 11 11 10 10 10 10 10 10 10 10 10 11 11 12 12 13 13 14 14 14 14 15 15
8 8 9 10 10 10 11 11 11 11 11 10 9 9 9 10 10 11 12 11 11 11 12 13 13 12 12 12 11 10 8 7 6 6 6 6 6 6 6 5 5 4 4 4 5 6 8 9 10 10 10 10 10 10 10 11 11 12 12 12 12 12 11 11 10 10 9 9 9 9 10 10 10 11 11 12 13 13 14 14 15 15 16 16 17 18
8 8 8 8 9 10 12 13 13 12 11 10 9 9 9 10 11 11 11 11 11 11 12 12 13 12 12 11 10 9 8 6 6 5 5 6 6 6 6 5 5 5 5 5 6 7 8 9 9 9 9 9 10 10 11 12 12 12 12 12 12 11 11 10 10 9 9 9 10 10 11 11 12 12 13 13 14 14 14 15 15 15 16 16 17 17
10 9 8 7 8 9 12 14 14 13 11 10 10 9 10 10 11 11 11 11 11 12 12 13 13 13 12 12 10 9 7 6 6 5 5 5 6 6 6 5 5 5 6 6 7 8 8 8 8 9 9 10 10 11 12 12 12 12 12 12 12 11 11 10 10 10 11 11 12 12 12 13 13 13 13 14 14 14 14 14 14 14 14 15 15 16
11 10 8 8 8 10 13 16 16 14 11 10 9 10 10 10 10 11 11 11 11 12 13 13 14 13 13 12 10 8 7 6 5 5 5 5 6 6 6 5 6 6 6 7 7 7 8 8 8 9 10 10 11 12 12 12 12 12 12 12 12 11 11 11 11 12 12 12 13 13 13 13 13 13 13 13 13 13 13 13 13 13 13 13 14 14
9 8 8 7 9 12 17 18 18 15 12 10 8 9 10 10 11 11 11 11 12 13 13 14 14 14 13 12 10 8 6 5 5 5 5 6 6 6 6 6 6 6 6 6 7 7 7 7 8 9 10 11 12 12 12 12 12 12 12 12 12 11 11 11 12 12 12 12 12 12 12 12 12 12 12 12 12 13 13 13 13 12 12 13 13 13
9 8 6 7 10 13 17 18 18 16 13 11 9 8 8 9 10 11 11 12 13 14 14 13 13 13 13 12 10 8 6 5 5 5 5 6 6 6 6 6 6 6 6 6 6 6 6 7 8 9 10 11 12 12 13 13 12 12 12 12 11 11 11 11 10 10 10 10 10 10 10 10 11 11 11 12 12 12 13 13 13 13 13 13 13 13
6 6 5 8 12 16 18 17 16 15 12 11 10 10 8 9 10 10 11 13 13 14 14 13 13 12 12 12 10 8 6 5 5 5 5 6 6 6 7 7 7 7 7 6 6 6 6 8 9 10 11 12 12 12 13 12 12 12 12 11 11 10 10 10 10 9 9 9 9 9 9 9 9 10 10 10 10 11 12 12 13 13 14 14 14 14
2 3 5 8 14 19 23 20 16 13 11 10 10 11 12 13 12 11 11 12 12 13 13 13 13 12 11 10 9 7 6 5 5 5 5 6 6 7 8 8 8 8 8 7 6 6 7 8 10 11 12 12 12 12 12 12 12 12 12 11 10 10 9 9 8 8 8 8 8 8 8 7 7 7 8 8 8 9 9 10 11 12 13 14 15 15
5 6 8 12 16 19 22 20 17 13 11 9 9 10 14 15 14 13 12 12 11 11 12 12 13 13 12 10 8 7 6 5 5 5 5 6 7 8 8 8 8 8 7 6 6 6 7 8 10 11 12 12 12 12 12 12 12 12 12 11 10 9 8 8 7 7 6 6 6 5 5 5 5 5 6 6 6 7 7 8 9 10 12 13 15 16
11 12 13 16 19 21 21 18 15 13 13 12 12 12 13 13 12 11 11 11 12 12 12 11 12 12 12 10 8 7 6 5 5 5 5 6 7 8 8 7 7 6 6 5 6 6 7 9 10 11 11 12 12 12 12 13 13 12 12 11 10 8 7 6 5 4 4 3 3 3 3 3 3 4 4 4 5 5 6 7 8 10 11 13 14 16
14 16 17 20 22 22 21 18 16 14 14 14 15 15 13 11 9 9 9 10 12 13 13 13 12 10 10 10 8 7 6 5 5 5 6 7 7 7 7 7 7 6 5 6 6 7 8 9 10 10 11 11 11 12 12 13 13 13 12 11 10 8 7 5 4 3 2 1 1 1 2 2 2 3 3 4 4 4 5 6 8 10 11 13 14 16
15 16 18 21 21 21 20 18 17 17 16 15 14 13 11 10 9 8 8 10 12 12 13 13 12 11 10 9 8 6 5 5 5 5 6 6 7 7 7 7 7 6 6 6 6 7 7 9 10 10 10 10 11 12 12 13 13 13 13 12 11 9 7 6 4 3 2 2 2 2 2 3 3 3 3 4 4 4 4 6 8 10 12 13 15 16
16 16 18 20 20 19 18 18 17 17 16 14 13 11 10 9 9 9 10 11 11 12 12 12 12 11 11 9 8 7 5 5 5 5 5 6 6 7 7 7 7 6 6 6 6 7 7 8 8 9 10 10 11 12 12 13 14 14 14 13 12 11 9 7 6 5 4 5 5 5 5 5 5 5 5 5 5 5 5 6 8 11 13 15 16 16
16 18 20 21 20 19 18 18 18 17 14 13 11 10 10 9 9 9 10 11 11 12 12 12 11 10 9 8 8 7 5 5 5 5 5 6 6 6 6 7 7 6 6 6 6 6 7 7 7 8 9 10 11 11 12 13 13 14 14 13 13 12 11 10 10 9 9 9 9 9 9 9 9 8 8 8 8 8 8 9 11 13 14 16 16 17
18 19 20 22 21 18 17 18 17 15 13 12 11 10 10 10 9 9 10 10 11 11 12 12 11 10 9 7 6 5 5 5 5 5 5 5 5 5 5 7 7 7 6 6 6 6 6 6 7 7 8 9 10 11 12 13 13 13 13 13 13 13 13 12 12 12 12 12 12 12 12 12 12 12 12 12 13 13 13 14 15 16 16 17 18 19
18 20 21 22 20 18 18 17 15 13 12 12 10 9 9 9 9 9 9 10 10 11 11 11 11 11 10 8 7 5 5 4 4 4 4 5 5 5 5 6 7 7 7 6 6 5 5 5 6 7 8 9 10 11 12 13 13 13 13 13 13 13 12 12 12 12 13 13 13 13 13 13 13 14 15 16 16 17 18 18 19 19 19 19 20 21
18 20 22 21 20 18 19 18 16 14 12 10 9 8 8 8 8 8 9 10 10 10 10 10 10 10 10 8 8 6 5 4 4 4 5 5 5 5 5 6 7 8 7 6 5 5 5 5 6 6 7 8 10 11 12 13 13 13 12 12 12 11 11 11 11 11 11 12 13 13 14 15 15 16 17 18 19 19 20 21 21 20 20 20 20 20
19 21 24 24 21 19 17 17 15 12 9 8 7 7 7 7 8 9 10 10 10 9 9 9 9 9 9 9 7 6 4 4 4 4 4 5 5 5 5 7 8 8 8 6 5 4 5 5 6 6 7 8 10 11 12 12 12 12 12 11 10 9 9 8 8 9 10 11 12 13 14 15 16 17 18 19 20 20 21 21 20 20 19 18 17 16
21 22 25 25 24 21 19 16 13 10 9 8 8 7 7 8 8 9 10 9 9 8 8 8 8 9 9 8 6 5 4 3 3 4 5 5 5 5 4 5 7 8 7 6 5 5 5 5 5 5 6 8 9 11 12 12 12 12 11 9 8 7 7 6 7 7 8 10 12 13 15 16 17 18 19 20 20 20 21 20 21 21 21 21 20 19
26 27 26 26 25 23 19 15 12 9 9 8 8 7 7 8 9 9 9 8 8 7 7 7 8 8 8 8 6 5 4 3 4 4 5 5 5 4 3 4 6 7 7 6 6 6 5 4 4 5 6 8 9 11 12 12 12 12 10 8 7 6 5 5 6 6 8 10 12 14 16 17 18 19 20 20 20 20 20 20 20 21 22 24 25 27
26 31 31 28 25 22 18 14 11 9 8 8 8 7 8 8 9 9 9 7 7 7 7 8 8 8 9 8 7 5 4 4 4 4 4 4 4 3 2 3 5 7 7 6 6 6 5 4 4 4 6 7 9 11 12 13 13 12 10 7 6 5 4 5 5 6 8 10 12 15 18 19 20 21 21 20 20 19 18 18 19 20 21 23 25 27
19 27 31 28 25 20 16 13 10 9 7 7 7 7 8 8 9 9 9 8 8 8 8 8 8 9 9 8 7 5 4 3 3 3 3 3 3 3 2 3 5 6 6 6 5 5 5 4 4 4 6 7 9 11 12 13 12 11 9 7 5 4 4 5 6 6 8 10 13 16 20 21 22 22 21 20 18 17 16 17 18 19 21 23 24 24
12 21 30 30 25 19 14 12 9 7 6 6 6 7 8 8 8 8 8 8 8 8 8 9 9 9 9 8 7 6 4 4 3 3 3 2 3 3 2 3 4 6 6 6 5 4 4 5 5 5 6 7 9 10 12 12 12 11 9 7 6 5 5 5 6 6 7 9 13 17 21 23 24 23 21 19 18 16 16 16 18 19 21 23 23 24
8 15 28 30 25 18 13 10 7 6 5 5 6 7 8 8 8 8 8 8 8 8 9 10 10 10 9 8 7 6 5 4 4 3 2 2 3 3 3 3 4 4 5 5 5 4 5 6 6 6 6 7 8 10 11 11 11 10 9 7 6 5 5 5 5 6 6 8 12 17 22 24 25 24 21 19 18 16 16 16 18 19 21 22 22 22
10 12 22 28 25 18 11 8 6 5 4 5 6 7 8 8 8 8 9 8 8 8 9 9 9 10 10 8 7 6 6 5 4 3 2 3 3 3 3 3 3 3 4 4 5 5 5 6 6 6 6 7 8 9 10 10 10 9 8 7 6 6 5 5 5 5 6 8 12 17 23 25 25 24 21 19 17 16 15 16 18 19 20 21 21 20
17 16 19 26 24 19 11 7 5 4 4 5 6 6 7 7 8 8 8 8 8 8 8 8 7 8 9 8 8 7 6 5 4 3 2 3 3 3 3 3 3 3 3 4 5 6 5 5 6 6 7 7 8 8 9 9 9 9 8 8 7 6 6 6 6 6 6 8 13 18 23 25 25 24 21 19 17 15 15 16 18 19 19 20 19 19
22 21 20 25 25 20 12 8 5 4 4 4 5 5 6 6 6 7 9 9 9 8 9 8 7 6 7 8 8 7 5 5 4 3 2 3 3 3 2 3 2 2 3 4 6 7 6 5 5 5 6 7 7 8 8 8 8 8 8 8 7 7 6 6 6 6 7 9 13 18 22 25 25 24 22 19 17 16 15 16 18 19 19 18 18 18
25 23 20 21 21 18 13 8 6 4 4 3 3 3 3 4 5 6 7 7 8 8 8 8 7 6 7 8 8 7 6 6 5 4 3 4 4 3 2 2 2 2 3 4 5 6 7 6 5 5 5 6 7 7 7 7 8 8 8 8 8 7 6 6 6 7 8 10 13 17 21 24 25 24 22 20 17 16 16 17 18 19 18 17 17 17
28 25 21 19 16 13 10 7 6 5 4 4 3 3 3 4 4 5 5 4 5 6 7 7 7 6 6 7 7 7 7 6 5 5 4 4 4 4 3 2 2 2 3 4 4 5 6 7 6 6 5 5 6 7 7 7 7 7 8 8 8 7 7 7 7 7 8 10 12 16 19 22 24 24 23 20 18 17 16 18 19 19 18 17 16 16
28 26 24 21 17 12 8 6 5 4 4 4 4 4 4 4 5 5 5 4 4 5 6 7 7 7 7 7 7 7 6 6 6 5 5 5 4 4 3 3 2 2 2 4 5 5 5 6 7 8 7 6 6 6 6 6 6 7 7 7 7 8 7 7 7 8 8 10 12 14 18 21 24 24 24 21 19 18 18 18 19 20 19 18 16 16
27 25 23 20 16 11 6 5 4 4 4 4 5 5 5 5 6 6 6 6 6 6 6 6 7 8 8 8 8 7 7 8 8 7 6 6 4 3 2 2 2 2 2 3 4 5 6 6 7 8 8 7 6 5 5 6 6 6 6 7 7 8 8 8 8 8 9 10 12 14 16 20 22 24 24 22 20 19 18 18 19 20 20 19 18 17
26 23 20 15 10 6 4 3 4 4 4 5 5 6 6 7 7 7 8 7 7 6 5 6 7 8 9 8 7 7 7 9 9 8 6 5 4 2 1 2 2 2 3 4 4 5 6 6 7 7 8 7 6 5 4 5 6 6 6 7 8 8 8 8 8 8 9 10 11 13 16 18 21 23 23 22 20 19 18 18 19 19 20 20 19 18
24 21 17 11 6 3 2 2 2 3 4 5 6 7 8 8 9 9 9 8 6 6 6 7 8 9 10 9 8 7 7 8 7 6 5 4 3 2 2 2 2 3 4 4 5 6 6 7 7 6 6 7 7 6 4 4 5 6 6 7 8 8 8 8 8 8 9 10 12 13 15 18 20 22 22 22 20 19 19 18 18 19 19 20 20 19
21 18 14 9 5 3 3 3 3 4 4 6 7 8 10 10 11 10 9 7 6 6 6 8 9 9 10 10 10 9 8 7 6 6 5 4 4 3 3 3 4 4 4 4 5 6 6 7 7 6 5 5 6 6 6 5 5 5 6 7 7 8 8 8 8 9 10 10 12 13 15 18 20 22 22 22 21 20 19 19 19 19 20 20 20 20
18 14 11 7 5 4 4 4 5 5 6 8 9 11 13 13 12 10 8 6 6 6 7 8 9 9 9 10 10 10 9 8 7 7 6 5 4 4 4 4 4 5 5 5 4 5 6 7 7 7 6 5 5 5 6 6 5 5 6 6 7 7 8 8 9 10 10 11 12 14 16 18 20 22 23 22 21 20 19 19 19 20 20 21 22 22
14 11 8 6 5 5 5 5 6 7 8 11 13 14 14 13 11 9 7 6 6 6 7 8 9 10 10 10 10 10 9 9 8 7 6 5 5 5 5 5 5 4 4 4 4 4 5 6 6 6 6 6 5 5 5 5 5 5 6 6 7 8 8 8 9 10 10 10 12 14 17 19 21 22 22 21 20 19 18 19 19 20 20 22 22 22
11 9 7 6 6 5 6 6 8 9 12 13 14 14 13 10 9 8 7 7 7 7 8 9 10 10 11 10 10 10 10 9 9 8 7 6 6 6 6 6 5 4 4 4 4 4 5 5 5 5 5 5 5 6 5 5 5 5 6 6 7 7 8 8 9 10 10 11 13 16 18 19 21 22 22 20 18 16 16 18 19 19 20 21 23 24
9 8 7 6 7 7 7 8 10 11 13 13 13 12 10 9 8 7 7 8 8 8 9 9 10 11 11 12 12 11 11 10 10 9 8 8 7 7 6 6 5 4 4 4 4 5 5 5 5 4 4 4 5 5 5 5 5 6 6 7 7 7 7 8 9 10 10 12 15 17 18 19 20 21 21 19 17 16 16 17 18 19 19 19 20 22
9 8 7 8 8 9 10 10 11 11 11 11 11 10 9 8 8 7 7 8 8 9 10 10 11 11 11 12 12 12 12 12 11 10 9 9 8 7 6 6 5 4 4 4 4 5 5 4 4 4 4 4 5 5 5 5 5 6 6 7 7 7 7 9 10 10 10 13 15 18 19 19 20 22 22 20 18 18 17 17 18 19 19 20 19 18
11 10 10 10 10 10 10 10 10 10 10 10 10 10 10 9 9 8 8 8 8 8 10 11 12 12 11 11 11 11 12 12 11 10 10 10 9 8 7 6 5 4 4 4 4 4 4 4 4 4 4 4 5 5 5 5 6 6 6 7 6 7 7 9 9 9 10 13 15 17 18 19 21 22 22 20 19 18 17 17 18 18 18 19 20 20
13 12 11 10 9 8 8 7 7 7 7 7 8 9 10 10 10 9 8 8 8 9 10 11 12 12 11 11 11 11 11 11 11 11 11 10 9 8 7 6 5 4 3 3 3 2 2 4 4 4 4 5 5 5 5 5 5 6 6 7 7 7 8 7 8 9 11 13 15 16 18 20 22 23 22 20 18 17 17 18 19 20 19 19 19 20
11 9 7 6 5 4 4 4 3 2 2 3 4 6 8 9 10 10 9 9 9 9 9 10 10 10 11 11 11 11 11 11 11 11 11 11 10 9 7 6 4 4 3 3 3 2 2 3 4 4 4 5 5 5 5 5 6 6 6 6 7 8 8 8 9 10 11 12 14 16 17 20 22 23 22 19 18 17 18 20 21 22 21 20 20 19
5 3 2 1 1 1 1 1 0 0 0 0 1 3 6 9 10 10 10 9 9 9 9 10 10 10 10 10 10 11 11 11 11 11 11 11 10 9 8 7 5 3 2 2 3 3 4 4 4 4 4 5 5 5 5 6 6 6 6 6 7 7 8 8 9 10 10 12 13 15 17 20 22 22 21 19 19 18 18 19 20 21 22 22 21 20
-2 -2 -1 -0 0 0 1 1 1 1 1 -0 -1 1 5 8 10 11 11 10 10 9 9 9 10 10 10 10 10 11 11 11 11 11 11 11 10 10 9 8 6 4 3 3 3 4 4 5 5 5 5 5 5 5 6 6 6 6 6 6 6 7 8 8 9 9 10 11 12 14 18 21 23 23 22 21 20 19 18 17 18 19 21 22 22 21
-2 -1 1 2 3 3 3 3 4 3 1 -1 -2 0 4 8 10 11 10 10 9 9 9 9 9 10 10 11 11 11 11 11 11 11 11 11 11 11 10 8 6 4 4 4 4 5 5 5 5 5 5 5 5 5 6 6 6 6 5 6 6 7 8 8 9 9 9 10 11 13 16 21 23 25 25 23 20 18 17 16 17 19 20 22 22 22
3 4 6 6 6 7 7 6 6 4 0 -2 -1 1 6 9 11 11 9 8 8 8 8 9 9 10 10 10 11 11 11 11 11 11 11 12 12 11 10 8 6 5 5 5 5 5 5 5 5 5 6 6 6 6 6 6 6 5 5 6 7 8 8 9 8 8 8 9 10 12 14 18 21 24 26 24 21 18 16 16 17 19 21 22 22 21
5 6 7 7 8 8 8 7 5 3 -0 -1 1 4 8 10 11 10 9 8 8 8 9 9 9 10 10 10 10 11 11 11 11 11 12 12 12 11 10 8 7 6 6 6 6 6 5 5 5 5 6 7 7 6 6 6 5 5 5 6 7 8 8 8 8 8 8 8 10 12 13 16 19 22 24 22 21 20 18 17 17 18 21 23 22 20
3 3 4 4 5 5 5 4 2 1 0 2 5 8 11 11 10 9 9 8 9 9 9 9 9 9 10 10 10 11 11 11 11 11 12 12 12 11 10 8 8 7 7 6 6 6 6 6 6 6 6 7 7 6 6 5 5 4 5 6 7 7 8 8 8 8 7 8 9 11 12 16 19 22 24 24 23 22 19 17 17 18 20 23 23 21
Height
2942 2943 2944 2944 2944 2944 2945 2946 2946 2946 2946 2946 2946 2945 2944 2944 2944 2944 2944 2944 2944 2944 2944 2944 2944 2944 2944 2944 2944 2944 2944 2944 2944 2944 2943 2943 2943 2943 2942 2942 2941 2940 2939 2939 2938 2937 2937 2936 2935 2934 2932 2931 2930 2929 2927 2926 2925 2924 2923 2922 2920 2919 2919 2918 2917 2916 2915 2914 2914 2914 2913 2913 2912 2912 2911 2911 2910 2909 2909 2909 2908 2907 2907 2906 2905 2905
2939 2939 2940 2940 2941 2941 2941 2942 2943 2942 2942 2941 2941 2941 2941 2940 2940 2940 2940 2940 2940 2940 2940 2940 2940 2940 2940 2941 2941 2941 2941 2941 2941 2940 2940 2940 2940 2940 2939 2939 2938 2937 2936 2936 2935 2934 2934 2933 2932 2930 2929 2928 2926 2925 2924 2922 2921 2920 2919 2918 2917 2915 2914 2914 2913 2912 2911 2910 2910 2909 2909 2908 2908 2908 2907 2906 2906 2905 2904 2904 2903 2902 2902 2901 2900 2900
2935 2935 2936 2937 2937 2937 2937 2938 2939 2938 2938 2937 2937 2937 2937 2936 2936 2936 2937 2936 2936 2936 2936 2936 2936 2937 2937 2938 2938 2938 2938 2938 2938 2937 2937 2937 2937 2937 2936 2935 2935 2934 2933 2933 2932 2931 2930 2929 2928 2927 2925 2924 2923 2921 2920 2919 2918 2916 2915 2914 2913 2912 2911 2910 2909 2908 2907 2907 2906 2905 2905 2904 2904 2903 2902 2901 2901 2900 2899 2899 2898 2897 2897 2896 2895 2895
2931 2931 2933 2934 2934 2934 2934 2934 2934 2934 2934 2933 2933 2933 2933 2933 2933 2933 2933 2933 2933 2933 2933 2933 2933 2933 2934 2934 2935 2935 2935 2934 2934 2934 2934 2934 2934 2934 2933 2932 2931 2931 2930 2929 2929 2928 2927 2926 2924 2923 2922 2920 2919 2918 2917 2915 2914 2913 2912 2910 2909 2908 2907 2906 2905 2904 2904 2903 2902 2901 2900 2899 2899 2898 2897 2897 2896 2895 2895 2894 2893 2893 2892 2891 2890 2889
2928 2928 2929 2929 2929 2930 2930 2931 2930 2930 2929 2929 2929 2929 2929 2929 2929 2929 2929 2929 2929 2929 2929 2929 2929 2930 2930 2931 2932 2932 2932 2931 2931 2931 2931 2931 2931 2930 2930 2929 2928 2928 2927 2927 2926 2925 2924 2923 2921 2920 2919 2917 2916 2914 2913 2912 2910 2909 2908 2907 2905 2904 2904 2903 2901 2900 2899 2899 2898 2897 2896 2895 2894 2894 2893 2892 2891 2891 2890 2889 2889 2888 2887 2886 2885 2884
2924 2924 2925 2925 2925 2926 2927 2927 2926 2926 2925 2925 2925 2925 2926 2926 2926 2926 2926 2926 2926 2926 2926 2926 2926 2927 2927 2928 2928 2929 2929 2928 2928 2928 2928 2928 2928 2927 2927 2926 2925 2924 2924 2924 2923 2922 2920 2919 2918 2917 2915 2914 2913 2911 2910 2909 2907 2906 2904 2903 2902 2901 2900 2899 2898 2897 2896 2895 2894 2893 2892 2891 2890 2889 2889 2888 2887 2886 2885 2884 2883 2883 2882 2881 2880 2879
2920 2920 2920 2921 2921 2922 2922 2922 2922 2922 2922 2921 2921 2922 2922 2922 2922 2922 2922 2923 2923 2923 2923 2923 2923 2924 2924 2924 2925 2925 2925 2925 2925 2925 2925 2925 2925 2924 2924 2923 2922 2921 2921 2920 2919 2919 2917 2916 2914 2913 2912 2910 2909 2908 2906 2905 2904 2902 2901 2900 2899 2898 2897 2896 2894 2894 2892 2891 2890 2889 2888 2887 2886 2885 2884 2883 2882 2881 2880 2879 2878 2877 2877 2876 2875 2874
2916 2916 2917 2917 2917 2918 2918 2918 2918 2918 2918 2918 2918 2918 2918 2918 2919 2919 2919 2919 2919 2919 2919 2920 2920 2920 2921 2921 2921 2921 2921 2921 2922 2922 2922 2922 2922 2921 2920 2919 2919 2919 2918 2917 2916 2915 2914 2913 2911 2910 2909 2907 2906 2904 2903 2902 2900 2899 2898 2896 2895 2894 2893 2892 2891 2890 2889 2887 2886 2885 2884 2883 2882 2881 2880 2879 2878 2877 2875 2874 2874 2872 2871 2870 2869 2869
2912 2912 2913 2913 2913 2913 2913 2914 2914 2914 2914 2914 2914 2914 2914 2914 2915 2915 2915 2915 2916 2916 2916 2916 2916 2917 2917 2918 2918 2918 2918 2918 2918 2919 2919 2919 2919 2918 2917 2917 2916 2915 2915 2914 2913 2912 2910 2909 2908 2907 2905 2904 2903 2901 2900 2898 2897 2895 2894 2893 2892 2890 2889 2888 2887 2886 2885 2884 2882 2881 2880 2879 2878 2877 2876 2874 2874 2872 2871 2870 2869 2868 2866 2865 2864 2863
2908 2908 2908 2909 2909 2909 2909 2909 2910 2910 2910 2909 2909 2909 2910 2911 2911 2912 2912 2912 2913 2913 2913 2913 2913 2914 2914 2914 2914 2914 2914 2914 2915 2915 2915 2915 2915 2915 2914 2913 2913 2912 2912 2911 2910 2909 2907 2906 2905 2903 2902 2901 2899 2898 2897 2895 2894 2892 2891 2889 2888 2887 2885 2884 2883 2882 2881 2879 2879 2877 2876 2875 2874 2873 2872 2870 2869 2868 2867 2865 2864 2863 2861 2860 2859 2858
2904 2904 2904 2904 2904 2905 2905 2905 2906 2906 2906 2905 2905 2905 2906 2907 2908 2909 2909 2909 2909 2910 2909 2909 2909 2910 2911 2911 2911 2911 2911 2911 2911 2912 2912 2912 2912 2911 2910 2910 2909 2909 2908 2907 2906 2905 2904 2903 2902 2900 2899 2898 2896 2895 2893 2892 2890 2889 2887 2886 2884 2883 2882 2880 2879 2878 2877 2876 2874 2873 2872 2871 2870 2869 2867 2866 2864 2863 2862 2860 2859 2858 2856 2855 2854 2853
2899 2899 2899 2899 2900 2901 2901 2901 2902 2902 2901 2901 2901 2902 2903 2904 2905 2905 2905 2905 2906 2906 2906 2906 2906 2906 2907 2908 2908 2908 2908 2908 2908 2908 2909 2909 2909 2908 2907 2906 2906 2905 2904 2904 2903 2902 2901 2900 2898 2897 2896 2894 2893 2891 2890 2888 2886 2885 2884 2882 2881 2879 2878 2876 2875 2874 2873 2872 2870 2869 2868 2867 2865 2864 2863 2861 2860 2859 2857 2856 2854 2853 2851 2850 2849 2847
2894 2894 2894 2895 2896 2896 2897 2897 2897 2897 2897 2897 2898 2899 2900 2901 2901 2901 2900 2901 2902 2903 2903 2902 2902 2903 2904 2904 2904 2905 2904 2904 2904 2904 2905 2905 2905 2905 2904 2903 2902 2901 2901 2900 2899 2899 2898 2896 2895 2894 2892 2891 2889 2888 2886 2884 2883 2882 2880 2879 2877 2875 2874 2873 2871 2870 2869 2868 2866 2865 2864 2862 2861 2859 2858 2857 2855 2854 2852 2851 2849 2848 2846 2845 2843 2842
2890 2890 2890 2890 2891 2892 2893 2893 2893 2893 2893 2894 2895 2896 2897 2897 2897 2897 2896 2897 2898 2899 2899 2899 2899 2899 2900 2901 2901 2901 2901 2901 2901 2901 2901 2902 2902 2901 2900 2899 2898 2898 2897 2896 2896 2895 2894 2892 2891 2890 2889 2887 2886 2884 2883 2881 2880 2878 2877 2875 2874 2872 2870 2869 2868 2866 2865 2864 2862 2860 2859 2858 2856 2854 2853 2852 2850 2849 2847 2845 2844 2843 2841 2839 2838 2836
2886 2886 2886 2886 2887 2888 2889 2889 2889 2889 2890 2891 2892 2892 2893 2893 2893 2893 2893 2894 2894 2895 2895 2895 2895 2896 2897 2898 2898 2898 2898 2897 2897 2897 2898 2899 2899 2898 2897 2895 2894 2894 2894 2893 2892 2891 2890 2889 2887 2886 2885 2884 2883 2881 2879 2878 2876 2875 2873 2871 2870 2868 2867 2865 2864 2862 2861 2859 2857 2856 2854 2853 2851 2850 2848 2846 2845 2843 2842 2840 2838 2837 2835 2834 2832 2830
2882 2882 2881 2882 2883 2884 2885 2885 2885 2886 2887 2888 2888 2889 2889 2889 2889 2890 2890 2890 2891 2891 2891 2891 2892 2892 2893 2895 2895 2895 2894 2894 2893 2893 2894 2895 2895 2895 2893 2891 2890 2890 2890 2889 2888 2887 2886 2885 2884 2882 2881 2880 2879 2878 2876 2874 2873 2871 2870 2868 2866 2864 2863 2861 2860 2858 2856 2855 2853 2851 2849 2848 2846 2844 2843 2841 2839 2838 2836 2834 2832 2831 2829 2827 2826 2824
2878 2877 2878 2878 2879 2880 2881 2881 2882 2882 2883 2884 2884 2885 2885 2886 2886 2886 2886 2887 2887 2887 2887 2888 2888 2889 2890 2892 2893 2892 2891 2890 2889 2889 2890 2891 2892 2891 2890 2888 2886 2886 2886 2886 2885 2884 2882 2881 2880 2879 2878 2877 2875 2874 2873 2871 2870 2868 2866 2864 2863 2861 2859 2857 2856 2854 2852 2850 2849 2847 2845 2843 2841 2839 2837 2836 2834 2832 2830 2829 2827 2824 2823 2821 2819 2818
2874 2874 2874 2874 2875 2876 2877 2878 2878 2879 2879 2880 2881 2882 2882 2882 2883 2883 2883 2883 2883 2883 2884 2884 2884 2885 2886 2888 2889 2889 2889 2887 2885 2885 2886 2887 2888 2888 2886 2884 2883 2882 2882 2882 2881 2880 2879 2877 2876 2875 2874 2873 2872 2871 2869 2868 2866 2864 2863 2861 2859 2857 2855 2854 2852 2850 2848 2846 2844 2842 2840 2838 2836 2834 2832 2830 2829 2827 2825 2823 2821 2819 2817 2814 2813 2811
2870 2870 2870 2871 2871 2872 2873 2874 2874 2875 2876 2877 2878 2879 2879 2879 2879 2879 2879 2879 2879 2880 2880 2880 2880 2881 2883 2885 2886 2886 2885 2884 2882 2881 2882 2882 2883 2884 2883 2881 2879 2878 2878 2878 2877 2876 2874 2874 2873 2872 2871 2870 2869 2867 2866 2864 2863 2861 2859 2858 2856 2854 2852 2850 2848 2846 2844 2842 2840 2838 2835 2834 2831 2829 2827 2825 2824 2822 2819 2817 2815 2813 2811 2809 2807 2806
2866 2867 2867 2867 2868 2869 2869 2870 2871 2873 2874 2874 2875 2875 2875 2875 2876 2876 2876 2876 2877 2877 2877 2876 2877 2878 2879 2881 2882 2883 2882 2880 2879 2878 2878 2878 2879 2879 2879 2878 2875 2874 2874 2874 2874 2872 2871 2869 2869 2869 2868 2867 2865 2864 2863 2861 2859 2858 2856 2854 2852 2850 2848 2846 2844 2842 2840 2838 2835 2833 2831 2829 2826 2824 2822 2820 2818 2816 2814 2811 2809 2807 2805 2803 2802 2801
2863 2863 2864 2865 2865 2865 2866 2867 2869 2870 2870 2871 2871 2871 2871 2872 2872 2873 2873 2874 2874 2873 2873 2873 2874 2874 2876 2877 2878 2879 2879 2877 2876 2874 2874 2874 2874 2875 2876 2874 2872 2870 2870 2870 2869 2868 2867 2866 2865 2865 2864 2863 2862 2861 2859 2858 2856 2854 2853 2851 2849 2847 2844 2842 2840 2838 2836 2833 2831 2829 2826 2824 2821 2819 2817 2815 2813 2810 2808 2806 2804 2802 2800 2798 2797 2795
2860 2860 2861 2862 2862 2862 2864 2865 2866 2867 2867 2867 2867 2867 2868 2869 2869 2870 2870 2870 2870 2870 2869 2870 2870 2871 2872 2873 2874 2875 2875 2874 2873 2871 2870 2869 2870 2871 2873 2871 2868 2866 2866 2866 2865 2864 2863 2863 2862 2862 2861 2860 2859 2857 2856 2854 2853 2851 2849 2848 2845 2843 2841 2838 2836 2834 2831 2829 2826 2824 2821 2819 2816 2814 2812 2809 2807 2805 2803 2800 2798 2796 2794 2792 2791 2789
2857 2858 2858 2859 2859 2859 2861 2862 2863 2863 2864 2864 2864 2864 2865 2866 2866 2867 2867 2867 2867 2866 2866 2866 2867 2867 2868 2869 2870 2871 2871 2870 2869 2868 2866 2864 2865 2867 2869 2867 2864 2863 2862 2862 2861 2860 2860 2859 2859 2858 2858 2857 2855 2854 2852 2851 2849 2848 2846 2844 2842 2839 2837 2835 2832 2830 2827 2825 2822 2819 2817 2814 2811 2809 2807 2804 2802 2799 2797 2795 2793 2790 2789 2786 2785 2784
2854 2855 2855 2855 2856 2856 2858 2859 2859 2860 2860 2861 2861 2861 2862 2863 2863 2863 2863 2863 2863 2863 2863 2863 2864 2864 2865 2866 2867 2867 2867 2867 2866 2864 2863 2861 2861 2863 2864 2863 2861 2859 2858 2858 2858 2857 2856 2856 2856 2855 2854 2853 2852 2851 2849 2847 2846 2844 2842 2840 2838 2836 2834 2831 2829 2826 2823 2820 2818 2815 2813 2810 2807 2804 2802 2799 2797 2794 2792 2789 2787 2785 2783 2781 2780 2779
2849 2850 2852 2852 2853 2854 2854 2855 2856 2857 2857 2858 2858 2859 2859 2859 2860 2860 2859 2859 2859 2860 2860 2860 2860 2860 2862 2863 2863 2864 2864 2864 2863 2861 2859 2858 2858 2859 2860 2859 2858 2856 2854 2854 2854 2854 2852 2852 2852 2852 2851 2850 2849 2847 2845 2844 2842 2840 2839 2837 2835 2832 2830 2827 2824 2822 2819 2817 2814 2811 2809 2806 2803 2800 2797 2794 2792 2789 2787 2784 2782 2780 2778 2777 2775 2774
2844 2846 2848 2849 2850 2850 2851 2852 2853 2854 2854 2854 2855 2856 2856 2856 2856 2856 2856 2856 2857 2857 2858 2857 2857 2857 2859 2859 2860 2860 2861 2860 2859 2858 2856 2855 2854 2854 2856 2856 2854 2852 2850 2850 2850 2850 2849 2848 2848 2848 2847 2846 2845 2844 2842 2840 2839 2837 2835 2833 2831 2829 2826 2824 2821 2819 2816 2814 2811 2808 2805 2802 2799 2795 2793 2790 2787 2784 2782 2780 2778 2775 2774 2772 2770 2768
2840 2841 2844 2846 2847 2847 2848 2848 2849 2850 2851 2852 2852 2853 2853 2853 2853 2852 2852 2853 2854 2855 2854 2854 2854 2854 2855 2856 2856 2857 2858 2857 2856 2855 2854 2852 2850 2850 2852 2852 2851 2849 2847 2846 2846 2846 2845 2844 2844 2844 2844 2843 2841 2840 2839 2837 2835 2833 2831 2829 2827 2825 2823 2820 2818 2815 2813 2810 2807 2804 2801 2798 2794 2791 2788 2785 2783 2780 2778 2775 2773 2771 2769 2767 2765 2763
2838 2837 2839 2841 2843 2844 2844 2845 2846 2847 2848 2849 2849 2850 2850 2850 2849 2849 2849 2850 2852 2852 2851 2850 2850 2851 2852 2852 2853 2854 2854 2854 2853 2852 2851 2849 2847 2847 2848 2848 2847 2845 2844 2842 2842 2842 2842 2841 2840 2840 2839 2839 2838 2836 2835 2833 2831 2829 2827 2825 2824 2822 2819 2817 2814 2812 2809 2806 2803 2800 2797 2794 2790 2787 2784 2781 2778 2776 2774 2771 2769 2767 2765 2762 2760 2758
2835 2835 2835 2837 2839 2840 2841 2842 2843 2844 2844 2845 2846 2847 2847 2846 2846 2846 2847 2848 2849 2848 2847 2847 2847 2848 2848 2849 2849 2850 2850 2851 2851 2850 2848 2846 2844 2844 2845 2844 2844 2842 2841 2839 2838 2838 2838 2838 2837 2836 2835 2835 2834 2832 2831 2829 2827 2825 2824 2822 2820 2818 2816 2814 2811 2808 2805 2802 2799 2796 2793 2790 2786 2783 2780 2777 2774 2772 2770 2768 2765 2763 2761 2758 2756 2754
2831 2832 2833 2834 2836 2837 2838 2838 2839 2840 2842 2843 2843 2844 2844 2844 2843 2843 2844 2845 2845 2844 2844 2844 2844 2845 2845 2845 2845 2845 2846 2848 2848 2847 2845 2843 2841 2841 2842 2841 2840 2839 2838 2836 2834 2832 2833 2834 2834 2833 2832 2831 2830 2829 2827 2825 2824 2821 2820 2818 2816 2814 2813 2810 2807 2804 2801 2798 2795 2792 2789 2786 2783 2779 2776 2774 2771 2769 2767 2764 2763 2760 2757 2754 2752 2750
2828 2828 2829 2831 2833 2834 2835 2836 2836 2838 2839 2840 2840 2841 2841 2842 2841 2841 2842 2842 2842 2842 2841 2841 2841 2842 2842 2842 2841 2841 2842 2844 2845 2844 2842 2840 2839 2839 2839 2839 2838 2837 2836 2834 2831 2828 2827 2828 2829 2830 2829 2827 2826 2825 2824 2822 2820 2818 2815 2814 2812 2810 2809 2806 2803 2799 2797 2794 2791 2789 2785 2782 2779 2776 2773 2770 2768 2766 2764 2762 2759 2757 2754 2752 2749 2747
2824 2825 2825 2827 2829 2831 2832 2833 2834 2835 2836 2836 2837 2838 2839 2839 2839 2840 2840 2840 2839 2839 2839 2839 2838 2839 2839 2839 2838 2838 2839 2841 2841 2840 2839 2838 2836 2836 2836 2836 2835 2834 2833 2831 2829 2826 2823 2822 2823 2825 2825 2824 2822 2821 2820 2818 2816 2814 2811 2809 2808 2806 2804 2802 2799 2795 2793 2790 2787 2785 2782 2779 2776 2773 2770 2767 2765 2763 2761 2759 2757 2755 2752 2749 2747 2744
2821 2821 2822 2824 2825 2826 2827 2829 2830 2831 2832 2833 2834 2834 2835 2836 2836 2837 2837 2837 2837 2836 2836 2836 2836 2835 2835 2835 2835 2835 2836 2838 2838 2838 2836 2834 2833 2833 2833 2833 2832 2831 2830 2829 2826 2824 2822 2819 2819 2819 2819 2819 2819 2817 2815 2814 2812 2810 2808 2805 2803 2801 2800 2798 2795 2792 2789 2786 2783 2781 2778 2775 2773 2770 2767 2765 2763 2761 2759 2757 2755 2753 2750 2748 2745 2743
2817 2818 2819 2820 2821 2823 2824 2825 2826 2827 2828 2829 2830 2831 2832 2833 2834 2834 2834 2834 2834 2834 2834 2833 2833 2833 2833 2833 2832 2832 2833 2835 2835 2835 2833 2831 2830 2829 2830 2829 2829 2828 2827 2825 2824 2822 2819 2817 2816 2815 2814 2814 2814 2814 2812 2810 2808 2806 2804 2802 2800 2797 2795 2794 2791 2788 2784 2782 2779 2776 2774 2771 2769 2766 2764 2762 2760 2758 2756 2754 2752 2750 2749 2746 2744 2741
2814 2815 2816 2817 2818 2819 2820 2822 2823 2824 2825 2826 2827 2828 2829 2830 2831 2831 2832 2832 2831 2831 2831 2830 2830 2830 2830 2829 2829 2829 2830 2832 2833 2832 2830 2829 2827 2827 2826 2826 2826 2825 2824 2822 2820 2819 2816 2814 2814 2812 2810 2809 2809 2809 2809 2807 2804 2803 2801 2799 2797 2794 2792 2790 2787 2784 2781 2778 2775 2773 2770 2767 2765 2763 2761 2759 2757 2755 2753 2751 2749 2748 2746 2744 2742 2740
2811 2812 2813 2814 2815 2816 2818 2819 2820 2821 2822 2824 2825 2826 2827 2828 2829 2829 2829 2829 2829 2828 2828 2828 2828 2827 2827 2827 2827 2827 2828 2829 2830 2829 2827 2826 2825 2824 2823 2823 2823 2822 2820 2819 2817 2815 2813 2811 2810 2809 2808 2806 2805 2804 2804 2804 2802 2799 2797 2796 2794 2792 2789 2787 2784 2781 2778 2774 2772 2769 2766 2764 2761 2759 2757 2755 2754 2752 2750 2748 2747 2745 2744 2742 2740 2738
2808 2809 2810 2812 2813 2814 2815 2816 2818 2819 2820 2821 2823 2824 2825 2825 2826 2826 2826 2826 2826 2825 2825 2825 2824 2824 2824 2824 2824 2824 2825 2826 2826 2825 2824 2823 2822 2821 2820 2820 2819 2819 2818 2816 2814 2812 2810 2808 2807 2806 2805 2804 2802 2800 2799 2799 2798 2796 2794 2792 2790 2788 2786 2784 2782 2778 2775 2772 2769 2766 2764 2761 2759 2756 2754 2753 2751 2749 2747 2745 2744 2743 2741 2739 2738 2736
2805 2807 2808 2809 2810 2812 2813 2814 2816 2817 2819 2820 2821 2822 2822 2823 2823 2823 2823 2823 2823 2822 2822 2822 2822 2821 2821 2821 2821 2822 2822 2823 2823 2822 2822 2821 2820 2819 2818 2817 2816 2816 2815 2813 2811 2809 2807 2805 2804 2802 2801 2800 2799 2798 2796 2795 2793 2791 2790 2789 2787 2785 2783 2781 2779 2776 2773 2769 2766 2763 2761 2758 2756 2754 2752 2750 2748 2745 2744 2743 2741 2740 2739 2737 2736 2734
2803 2805 2806 2808 2809 2810 2811 2813 2814 2816 2817 2818 2819 2819 2819 2819 2819 2819 2819 2820 2820 2820 2819 2819 2819 2819 2819 2819 2819 2819 2819 2819 2819 2819 2819 2818 2817 2816 2815 2814 2813 2813 2812 2810 2809 2806 2804 2803 2801 2799 2798 2797 2795 2794 2794 2792 2790 2788 2786 2784 2782 2781 2780 2778 2776 2773 2770 2767 2764 2761 2758 2756 2754 2751 2749 2747 2744 2743 2741 2739 2739 2737 2736 2734 2733 2731
2802 2803 2804 2806 2808 2809 2810 2812 2813 2814 2815 2816 2816 2816 2816 2816 2816 2816 2817 2817 2817 2817 2817 2817 2816 2816 2816 2816 2816 2817 2817 2817 2817 2816 2816 2815 2815 2814 2813 2811 2810 2809 2809 2807 2806 2804 2802 2800 2799 2797 2796 2794 2792 2791 2790 2789 2788 2785 2783 2780 2778 2777 2776 2775 2774 2771 2768 2765 2762 2758 2755 2753 2751 2749 2746 2744 2742 2740 2738 2737 2735 2734 2733 2732 2730 2728
2800 2801 2803 2805 2806 2808 2809 2810 2812 2812 2813 2813 2813 2813 2813 2814 2814 2814 2814 2814 2814 2814 2814 2814 2814 2814 2814 2814 2814 2814 2814 2814 2814 2814 2813 2813 2812 2811 2810 2809 2808 2807 2806 2804 2803 2801 2800 2798 2796 2795 2794 2792 2790 2788 2787 2786 2785 2784 2781 2778 2775 2773 2772 2772 2771 2769 2765 2763 2759 2757 2753 2751 2749 2746 2744 2742 2740 2738 2736 2735 2733 2732 2731 2729 2728 2726
2799 2800 2802 2804 2805 2806 2807 2808 2809 2809 2809 2810 2810 2810 2811 2811 2811 2812 2811 2811 2811 2811 2811 2811 2811 2811 2810 2810 2811 2811 2811 2811 2811 2810 2810 2810 2809 2809 2807 2806 2805 2804 2803 2801 2799 2798 2797 2796 2794 2793 2792 2790 2788 2786 2784 2783 2783 2781 2779 2776 2773 2770 2769 2769 2768 2766 2763 2760 2757 2754 2752 2749 2746 2744 2742 2740 2738 2736 2735 2733 2732 2730 2729 2727 2726 2724
2797 2799 2801 2802 2803 2804 2805 2805 2806 2806 2807 2807 2808 2808 2809 2809 2809 2809 2809 2809 2809 2809 2809 2809 2808 2808 2807 2807 2808 2808 2808 2808 2808 2808 2807 2807 2806 2806 2805 2804 2803 2801 2800 2798 2797 2796 2795 2794 2793 2791 2790 2788 2786 2783 2781 2780 2779 2779 2777 2775 2772 2769 2765 2764 2764 2763 2761 2758 2755 2753 2750 2747 2744 2742 2740 2738 2736 2734 2733 2732 2730 2729 2728 2725 2724 2722
2796 2798 2799 2800 2801 2802 2802 2802 2803 2804 2804 2805 2805 2806 2806 2807 2806 2806 2806 2806 2806 2806 2806 2806 2805 2805 2804 2804 2804 2805 2805 2805 2805 2805 2804 2804 2804 2803 2802 2801 2800 2799 2797 2796 2794 2793 2792 2791 2790 2789 2788 2786 2784 2781 2779 2778 2777 2775 2774 2773 2770 2768 2764 2762 2760 2759 2757 2755 2753 2751 2748 2745 2742 2740 2738 2735 2734 2732 2731 2730 2729 2727 2726 2724 2722 2720
2794 2796 2797 2797 2798 2799 2799 2800 2800 2801 2802 2802 2803 2803 2804 2804 2804 2803 2803 2803 2803 2804 2803 2803 2802 2802 2801 2801 2802 2802 2802 2802 2803 2802 2802 2802 2801 2800 2800 2799 2798 2797 2795 2794 2792 2791 2790 2789 2788 2787 2785 2784 2781 2779 2777 2776 2774 2773 2771 2770 2768 2766 2763 2761 2759 2757 2754 2752 2750 2748 2746 2743 2740 2737 2735 2733 2731 2730 2729 2728 2726 2725 2724 2722 2720 2719
2792 2793 2794 2794 2795 2796 2796 2797 2798 2798 2799 2799 2800 2800 2801 2801 2801 2801 2800 2800 2800 2800 2800 2800 2799 2799 2798 2798 2799 2799 2799 2799 2799 2800 2799 2799 2799 2798 2797 2796 2795 2794 2793 2791 2790 2789 2788 2786 2785 2784 2782 2780 2779 2777 2776 2774 2772 2770 2768 2767 2765 2763 2761 2759 2757 2755 2752 2749 2747 2745 2743 2741 2739 2735 2733 2730 2729 2728 2727 2726 2724 2723 2721 2720 2719 2717
2789 2790 2791 2792 2792 2793 2794 2794 2795 2795 2796 2796 2797 2798 2798 2799 2798 2798 2798 2798 2798 2798 2797 2796 2796 2795 2795 2795 2796 2796 2796 2796 2797 2797 2797 2796 2796 2795 2795 2794 2793 2791 2790 2789 2788 2786 2785 2784 2783 2782 2780 2778 2775 2774 2773 2772 2770 2768 2766 2764 2763 2760 2758 2756 2754 2752 2750 2747 2745 2743 2741 2739 2736 2733 2730 2728 2726 2725 2725 2724 2723 2721 2719 2718 2717 2715
2786 2787 2788 2789 2789 2790 2791 2792 2793 2793 2794 2794 2794 2795 2795 2795 2796 2795 2795 2795 2795 2794 2794 2793 2793 2792 2792 2793 2793 2793 2793 2793 2793 2794 2794 2794 2793 2793 2792 2791 2790 2788 2787 2786 2785 2784 2783 2782 2781 2779 2778 2776 2773 2771 2770 2769 2768 2766 2764 2762 2760 2757 2755 2753 2751 2749 2747 2745 2743 2741 2739 2737 2734 2731 2728 2725 2724 2723 2723 2722 2721 2720 2718 2717 2715 2714
2784 2784 2785 2786 2787 2788 2788 2789 2790 2791 2791 2791 2792 2792 2793 2793 2793 2793 2792 2792 2792 2791 2791 2790 2790 2789 2789 2789 2790 2790 2790 2790 2790 2790 2791 2791 2790 2790 2789 2788 2787 2786 2784 2783 2782 2781 2780 2779 2779 2778 2776 2774 2772 2769 2767 2765 2764 2763 2761 2759 2757 2754 2752 2749 2748 2746 2744 2742 2740 2739 2737 2735 2733 2729 2726 2723 2721 2720 2720 2719 2719 2718 2717 2715 2714 2713
2782 2782 2783 2784 2784 2785 2786 2787 2788 2789 2789 2789 2789 2790 2790 2790 2790 2789 2789 2789 2789 2788 2788 2788 2787 2787 2786 2786 2787 2787 2787 2787 2787 2787 2787 2788 2788 2787 2786 2785 2784 2783 2782 2781 2779 2779 2777 2776 2775 2775 2775 2774 2771 2768 2764 2762 2760 2759 2757 2756 2754 2752 2749 2747 2745 2743 2741 2739 2738 2736 2734 2733 2731 2728 2725 2722 2719 2718 2717 2717 2717 2716 2715 2714 2713 2711
2779 2780 2781 2782 2783 2784 2784 2785 2786 2786 2786 2786 2787 2787 2787 2787 2787 2787 2786 2786 2786 2785 2785 2785 2784 2784 2784 2784 2784 2784 2784 2784 2784 2784 2784 2784 2784 2784 2783 2782 2781 2780 2779 2778 2777 2776 2774 2773 2772 2772 2773 2773 2771 2767 2763 2760 2758 2756 2754 2753 2752 2750 2748 2745 2742 2740 2738 2736 2734 2733 2731 2730 2728 2726 2723 2720 2718 2716 2715 2714 2715 2715 2714 2713 2711 2710